Date String (YYYY-MM-DD hh:mm:ss) UTC,Instrument flags,Ambient pressure (hPa),Sample flow (lpm),Bypass flow (lpm),Sample temperature (°C),Ambient temperature (°C),ASC tube jacket temperature (°C),LED temperature (°C),Box temperature (°C),Sample RH (%),Span deviation,Mass concentration (μg/m³),Mass concentration (μg/m³),Mass concentration (μg/m³)
DateTimeUTC,F1_M11,P_M11,Q1_M11,Q2_M11,T1_M11,T2_M11,T3_M11,T4_M11,T5_M11,U1_M11,ZSPAN_M11,X0_M11,X2_M11,X1_M11
2022-01-05 05:00:00,,0823.4,5.00,0.00,22.5,23.3,00.0,31.3,24.4,11.9,0000.0,0004.88,0001.38,0000.85
2022-01-05 05:01:00,,0823.4,5.00,0.00,22.5,23.0,00.0,31.3,24.3,11.9,0000.0,0004.79,0001.37,0000.85
2022-01-05 05:02:00,,0823.3,5.01,0.00,22.5,22.7,00.0,31.3,24.2,11.8,0000.0,0004.68,0001.35,0000.85
2022-01-05 05:03:00,,0823.6,5.00,0.00,22.4,22.5,00.0,31.3,24.1,11.7,0000.0,0004.63,0001.38,0000.84
2022-01-05 05:04:00,,0823.5,5.00,0.00,22.4,22.3,00.0,31.3,24.0,11.9,0000.0,0004.52,0001.37,0000.85
2022-01-05 05:05:00,,0823.5,5.01,0.00,22.3,22.1,00.0,31.3,23.9,11.9,0000.0,0004.61,0001.39,0000.85
2022-01-05 05:06:00,,0823.7,4.99,0.00,22.3,22.0,00.0,31.3,23.9,11.9,0000.0,0005.43,0001.45,0000.86
2022-01-05 05:07:00,,0823.8,5.00,0.00,22.4,22.6,00.0,31.4,24.2,11.9,0000.0,0004.31,0001.45,0000.87
2022-01-05 05:08:00,,0823.8,5.01,0.00,22.5,23.3,00.0,31.4,24.5,11.8,0000.0,0003.48,0001.43,0000.87
2022-01-05 05:09:00,,0823.8,5.00,0.00,22.7,23.6,00.0,31.5,24.7,11.7,0000.0,0003.60,0001.43,0000.87
2022-01-05 05:10:00,,0823.7,5.00,0.00,22.7,23.3,00.0,31.5,24.6,11.6,0000.0,0003.52,0001.41,0000.87
2022-01-05 05:11:00,,0823.7,4.99,0.00,22.7,23.0,00.0,31.5,24.5,11.6,0000.0,0003.53,0001.43,0000.88
2022-01-05 05:12:00,,0823.7,4.99,0.00,22.7,22.8,00.0,31.5,24.3,11.6,0000.0,0003.51,0001.41,0000.88
2022-01-05 05:13:00,,0823.7,4.99,0.00,22.6,22.5,00.0,31.5,24.2,11.7,0000.0,0003.59,0001.42,0000.89
2022-01-05 05:14:00,,0823.8,5.01,0.00,22.5,22.3,00.0,31.5,24.1,11.7,0000.0,0003.50,0001.38,0000.89
2022-01-05 05:15:00,,0823.8,4.99,0.00,22.5,22.1,00.0,31.5,24.0,11.7,0000.0,0004.47,0001.40,0000.89
2022-01-05 05:16:00,,0823.8,5.01,0.00,22.4,22.0,00.0,31.5,23.9,11.7,0000.0,0004.33,0001.36,0000.88
2022-01-05 05:17:00,,0823.8,5.00,0.00,22.4,22.4,00.0,31.5,24.1,11.7,0000.0,0003.46,0001.27,0000.87
2022-01-05 05:18:00,,0823.8,4.99,0.00,22.6,23.1,00.0,31.6,24.5,11.6,0000.0,0003.25,0001.24,0000.86
2022-01-05 05:19:00,,0823.9,5.00,0.00,22.7,23.5,00.0,31.6,24.7,11.5,0000.0,0003.21,0001.23,0000.86
2022-01-05 05:20:00,,0823.8,4.99,0.00,22.8,23.3,00.0,31.6,24.6,11.5,0000.0,0003.05,0001.20,0000.85
2022-01-05 05:21:00,,0823.9,5.01,0.00,22.7,23.0,00.0,31.6,24.5,11.5,0000.0,0003.05,0001.20,0000.86
2022-01-05 05:22:00,,0823.9,5.00,0.00,22.7,22.7,00.0,31.6,24.3,11.5,0000.0,0003.09,0001.19,0000.85
2022-01-05 05:23:00,,0823.9,4.99,0.00,22.6,22.4,00.0,31.6,24.2,11.6,0000.0,0003.18,0001.22,0000.85
2022-01-05 05:24:00,,0823.8,4.99,0.00,22.6,22.2,00.0,31.6,24.1,11.6,0000.0,0003.22,0001.25,0000.85
2022-01-05 05:25:00,,0823.7,5.01,0.00,22.5,22.0,00.0,31.6,24.0,11.6,0000.0,0003.59,0001.29,0000.86
2022-01-05 05:26:00,,0823.7,4.99,0.00,22.4,21.9,00.0,31.6,23.9,11.6,0000.0,0002.75,0001.28,0000.86
2022-01-05 05:27:00,,0823.7,5.01,0.00,22.3,21.7,00.0,31.5,23.8,11.6,0000.0,0002.82,0001.30,0000.87
2022-01-05 05:28:00,,0823.7,5.00,0.00,22.4,22.0,00.0,31.5,23.9,11.6,0000.0,0002.86,0001.32,0000.88
2022-01-05 05:29:00,,0823.8,5.00,0.00,22.5,22.6,00.0,31.6,24.2,11.5,0000.0,0002.95,0001.34,0000.89
2022-01-05 05:30:00,,0823.7,4.99,0.00,22.6,23.2,00.0,31.6,24.5,11.4,0000.0,0003.12,0001.37,0000.90
2022-01-05 05:31:00,,0823.7,4.99,0.00,22.7,23.1,00.0,31.6,24.5,11.3,0000.0,0003.13,0001.38,0000.90
2022-01-05 05:32:00,,0823.7,5.01,0.00,22.7,22.8,00.0,31.6,24.4,11.3,0000.0,0002.99,0001.34,0000.89
2022-01-05 05:33:00,,0823.8,5.01,0.00,22.6,22.6,00.0,31.6,24.2,11.3,0000.0,0002.96,0001.35,0000.90
2022-01-05 05:34:00,,0823.8,5.00,0.00,22.6,22.4,00.0,31.6,24.2,11.3,0000.0,0003.00,0001.35,0000.92
2022-01-05 05:35:00,,0823.8,5.00,0.00,22.5,22.2,00.0,31.6,24.1,11.3,0000.0,0002.86,0001.32,0000.92
2022-01-05 05:36:00,,0823.7,5.01,0.00,22.5,22.1,00.0,31.6,24.0,11.3,0000.0,0003.77,0001.28,0000.92
2022-01-05 05:37:00,,0823.8,4.99,0.00,22.4,21.9,00.0,31.6,23.9,11.3,0000.0,0004.13,0001.25,0000.93
2022-01-05 05:38:00,,0823.7,5.00,0.00,22.4,21.8,00.0,31.5,23.8,11.3,0000.0,0003.97,0001.21,0000.94
2022-01-05 05:39:00,,0823.7,5.01,0.00,22.3,21.6,00.0,31.5,23.7,11.3,0000.0,0003.93,0001.20,0000.95
2022-01-05 05:40:00,,0823.8,5.00,0.00,22.2,21.5,00.0,31.5,23.7,11.4,0000.0,0003.82,0001.17,0000.95
2022-01-05 05:41:00,,0823.9,4.99,0.00,22.3,22.0,00.0,31.5,23.9,11.3,0000.0,0003.72,0001.17,0000.96
2022-01-05 05:42:00,,0823.9,4.99,0.00,22.4,22.8,00.0,31.5,24.2,11.2,0000.0,0003.91,0001.21,0000.96
2022-01-05 05:43:00,,0824.0,5.01,0.00,22.6,23.2,00.0,31.5,24.5,11.1,0000.0,0004.06,0001.25,0000.98
2022-01-05 05:44:00,,0823.9,5.00,0.00,22.6,23.0,00.0,31.5,24.4,11.1,0000.0,0004.10,0001.26,0000.99
2022-01-05 05:45:00,,0824.0,5.00,0.00,22.6,22.7,00.0,31.5,24.3,11.1,0000.0,0005.02,0001.28,0000.98
2022-01-05 05:46:00,,0824.0,5.00,0.00,22.5,22.5,00.0,31.5,24.2,11.1,0000.0,0005.38,0001.29,0001.00
2022-01-05 05:47:00,,0824.1,5.00,0.00,22.5,22.3,00.0,31.5,24.1,11.1,0000.0,0004.52,0001.31,0000.99
2022-01-05 05:48:00,,0824.3,5.00,0.00,22.5,22.2,00.0,31.5,24.1,11.2,0000.0,0003.70,0001.32,0001.00
2022-01-05 05:49:00,,0824.2,5.02,0.00,22.4,22.0,00.0,31.5,24.0,11.2,0000.0,0003.74,0001.33,0001.01
2022-01-05 05:50:00,,0824.2,4.99,0.00,22.4,21.9,00.0,31.5,24.0,11.1,0000.0,0003.75,0001.33,0001.01
2022-01-05 05:51:00,,0824.2,5.01,0.00,22.4,21.8,00.0,31.5,23.9,11.2,0000.0,0003.78,0001.35,0001.01
2022-01-05 05:52:00,,0824.3,4.99,0.00,22.3,21.7,00.0,31.5,23.8,11.2,0000.0,0003.77,0001.35,0001.02
2022-01-05 05:53:00,,0824.3,5.02,0.00,22.2,21.5,00.0,31.4,23.7,11.3,0000.0,0003.50,0001.29,0001.02
2022-01-05 05:54:00,,0824.3,5.00,0.00,22.2,21.4,00.0,31.4,23.6,11.4,0000.0,0003.65,0001.27,0001.02
2022-01-05 05:55:00,,0824.4,4.99,0.00,22.1,21.2,00.0,31.4,23.5,11.4,0000.0,0003.72,0001.28,0001.02
2022-01-05 05:56:00,,0824.2,4.99,0.00,22.0,21.1,00.0,31.3,23.5,11.4,0000.0,0002.59,0001.25,0001.03
2022-01-05 05:57:00,,0824.4,5.00,0.00,22.0,21.1,00.0,31.3,23.5,11.4,0000.0,0002.35,0001.28,0001.03
2022-01-05 05:58:00,,0824.3,5.01,0.00,22.0,21.1,00.0,31.3,23.5,11.4,0000.0,0002.50,0001.34,0001.04
2022-01-05 05:59:00,,0824.4,5.00,0.00,22.0,21.2,00.0,31.2,23.5,11.5,0000.0,0002.69,0001.41,0001.04
